When you browse on this site, cookies collect data to enhance your experience and personalize the content and advertising you see.
Visit our Privacy Policy to learn more. By continuing to use the site, you agree to this use of cookies and data.
  • Em Portugal
  • Lista de países
  • Para 7 dias
  • Temperatura da água
  • Mapas de satélite
  • Mapa do tempo
  • Widgets de tempo
  • user-avatar
    Iniciar Sessão

    Previsão horária em Grzmiaca

    Hoje, 25 Março, Segunda-feira

    Tempo Temperatura Precipitação Vento Pressão Humidade
    00:00 +6°C° 0 mm 1 m/s 719 mmHg 80%
    01:00 +4°C° 0 mm 2 m/s 718 mmHg 85%
    02:00 +4°C° 0 mm 2 m/s 717 mmHg 86%
    03:00 +3°C° 0 mm 2 m/s 717 mmHg 87%
    04:00 +3°C° 0 mm 1 m/s 717 mmHg 89%
    05:00 +2°C° 0 mm 2 m/s 716 mmHg 87%
    06:00 +2°C° 0 mm 2 m/s 716 mmHg 86%
    07:00 +3°C° 0 mm 2 m/s 716 mmHg 83%
    08:00 +3°C° 0 mm 3 m/s 715 mmHg 74%
    09:00 +3°C° 0 mm 5 m/s 715 mmHg 64%
    10:00 +4°C° 0 mm 6 m/s 715 mmHg 55%
    11:00 +4°C° 0.3 mm 6 m/s 715 mmHg 58%
    12:00 +4°C° 0.3 mm 7 m/s 715 mmHg 60%
    13:00 +3°C° 0.3 mm 7 m/s 715 mmHg 63%
    14:00 +3°C° 0.2 mm 7 m/s 715 mmHg 62%
    15:00 +3°C° 0.2 mm 6 m/s 715 mmHg 62%
    16:00 +3°C° 0.2 mm 6 m/s 715 mmHg 62%
    17:00 +2°C° 0 mm 5 m/s 715 mmHg 67%
    18:00 +1°C° 0 mm 4 m/s 716 mmHg 72%
    19:00 +1°C° 0 mm 3 m/s 716 mmHg 78%
    20:00 0°C° 0 mm 3 m/s 717 mmHg 81%
    21:00 0°C° 0 mm 3 m/s 717 mmHg 84%
    22:00 0°C° 0 mm 3 m/s 718 mmHg 87%
    23:00 -1°C° 0 mm 3 m/s 719 mmHg 88%

    Amanhã, 26 Março, Terça-feira

    Tempo Temperatura Precipitação Vento Pressão Humidade
    00:00 -1°C° 0 mm 3 m/s 719 mmHg 89%
    01:00 -1°C° 0 mm 3 m/s 720 mmHg 90%
    02:00 -1°C° 0 mm 3 m/s 720 mmHg 90%
    03:00 -1°C° 0 mm 3 m/s 720 mmHg 91%
    04:00 0°C° 0 mm 3 m/s 721 mmHg 91%
    05:00 0°C° 0 mm 3 m/s 721 mmHg 89%
    06:00 0°C° 0 mm 3 m/s 721 mmHg 88%
    07:00 +1°C° 0 mm 2 m/s 722 mmHg 86%
    08:00 +1°C° 0 mm 3 m/s 722 mmHg 77%
    09:00 +3°C° 0 mm 4 m/s 722 mmHg 68%
    10:00 +3°C° 0 mm 5 m/s 722 mmHg 59%
    11:00 +4°C° 0 mm 6 m/s 722 mmHg 58%
    12:00 +4°C° 0 mm 7 m/s 722 mmHg 58%
    13:00 +4°C° 0 mm 8 m/s 722 mmHg 57%
    14:00 +4°C° 0 mm 8 m/s 722 mmHg 60%
    15:00 +2°C° 0 mm 8 m/s 722 mmHg 63%
    16:00 +1°C° 0 mm 8 m/s 722 mmHg 66%
    17:00 0°C° 0 mm 7 m/s 722 mmHg 69%
    18:00 +1°C° 0 mm 6 m/s 722 mmHg 73%
    19:00 0°C° 0 mm 5 m/s 722 mmHg 77%
    20:00 0°C° 0 mm 4 m/s 723 mmHg 79%
    21:00 -1°C° 0 mm 4 m/s 723 mmHg 81%
    22:00 -1°C° 0 mm 4 m/s 723 mmHg 83%
    23:00 0°C° 0 mm 3 m/s 724 mmHg 85%

    Depois de amanhã, 27 Março, Quarta-feira

    Tempo Temperatura Precipitação Vento Pressão Humidade
    00:00 -1°C° 0 mm 3 m/s 724 mmHg 87%
    01:00 -1°C° 0 mm 2 m/s 724 mmHg 90%
    02:00 -1°C° 0 mm 2 m/s 724 mmHg 90%
    03:00 -1°C° 0 mm 2 m/s 724 mmHg 91%
    04:00 -1°C° 0 mm 2 m/s 724 mmHg 92%
    05:00 -1°C° 0 mm 2 m/s 725 mmHg 90%
    06:00 +1°C° 0 mm 2 m/s 725 mmHg 88%
    07:00 +1°C° 0 mm 2 m/s 725 mmHg 86%
    08:00 +2°C° 0 mm 2 m/s 725 mmHg 80%
    09:00 +3°C° 0 mm 3 m/s 726 mmHg 75%
    10:00 +4°C° 0 mm 3 m/s 726 mmHg 69%
    11:00 +5°C° 0.1 mm 3 m/s 726 mmHg 70%
    12:00 +5°C° 0.1 mm 3 m/s 726 mmHg 70%
    13:00 +5°C° 0.1 mm 3 m/s 726 mmHg 70%
    14:00 +5°C° 0 mm 3 m/s 726 mmHg 70%
    15:00 +5°C° 0 mm 4 m/s 726 mmHg 70%
    16:00 +5°C° 0 mm 4 m/s 725 mmHg 70%
    17:00 +5°C° 0 mm 3 m/s 726 mmHg 75%
    18:00 +5°C° 0 mm 2 m/s 726 mmHg 80%
    19:00 +4°C° 0 mm 2 m/s 726 mmHg 85%
    20:00 +5°C° 0 mm 1 m/s 726 mmHg 87%
    21:00 +5°C° 0 mm 1 m/s 726 mmHg 89%
    22:00 +5°C° 0 mm 1 m/s 726 mmHg 91%
    23:00 +5°C° 0 mm 1 m/s 727 mmHg 92%

    28 Março, Quinta-feira

    Tempo Temperatura Precipitação Vento Pressão Humidade
    00:00 +4°C° 0 mm 1 m/s 727 mmHg 93%
    01:00 +4°C° 0 mm 1 m/s 727 mmHg 93%
    02:00 +4°C° 0 mm 1 m/s 727 mmHg 93%
    03:00 +4°C° 0 mm 1 m/s 727 mmHg 93%
    04:00 +4°C° 0 mm 1 m/s 726 mmHg 93%
    05:00 +5°C° 0 mm 1 m/s 727 mmHg 93%
    06:00 +5°C° 0 mm 1 m/s 727 mmHg 92%
    07:00 +5°C° 0 mm 1 m/s 727 mmHg 92%
    08:00 +5°C° 0.1 mm 2 m/s 727 mmHg 87%
    09:00 +6°C° 0.1 mm 2 m/s 728 mmHg 82%
    10:00 +7°C° 0.1 mm 3 m/s 728 mmHg 77%
    11:00 +7°C° 0.1 mm 3 m/s 728 mmHg 74%
    12:00 +8°C° 0.1 mm 3 m/s 729 mmHg 71%
    13:00 +7°C° 0.1 mm 4 m/s 729 mmHg 68%
    14:00 +7°C° 0.1 mm 4 m/s 729 mmHg 68%
    15:00 +7°C° 0.1 mm 4 m/s 728 mmHg 68%
    16:00 +7°C° 0.1 mm 4 m/s 728 mmHg 68%
    17:00 +7°C° 0 mm 3 m/s 729 mmHg 75%
    18:00 +5°C° 0 mm 2 m/s 729 mmHg 81%
    19:00 +4°C° 0 mm 2 m/s 729 mmHg 88%
    20:00 +4°C° 0 mm 2 m/s 729 mmHg 89%
    21:00 +3°C° 0 mm 2 m/s 730 mmHg 90%
    22:00 +4°C° 0 mm 1 m/s 730 mmHg 91%
    23:00 +3°C° 0 mm 1 m/s 730 mmHg 91%

    29 Março, Sexta-feira

    Tempo Temperatura Precipitação Vento Pressão Humidade
    00:00 +3°C° 0 mm 1 m/s 730 mmHg 91%
    01:00 +3°C° 0 mm 1 m/s 730 mmHg 91%
    02:00 +3°C° 0 mm 1 m/s 730 mmHg 91%
    03:00 +3°C° 0 mm 1 m/s 730 mmHg 92%
    04:00 +2°C° 0 mm 1 m/s 730 mmHg 92%
    05:00 +3°C° 0 mm 1 m/s 731 mmHg 90%
    06:00 +4°C° 0 mm 1 m/s 731 mmHg 88%
    07:00 +3°C° 0 mm 0 m/s 731 mmHg 86%
    08:00 +6°C° 0 mm 1 m/s 731 mmHg 78%
    09:00 +8°C° 0 mm 1 m/s 731 mmHg 69%
    10:00 +10°C° 0 mm 1 m/s 732 mmHg 61%
    11:00 +11°C° 0 mm 1 m/s 731 mmHg 57%
    12:00 +12°C° 0 mm 1 m/s 731 mmHg 53%
    13:00 +13°C° 0 mm 1 m/s 731 mmHg 48%
    14:00 +13°C° 0 mm 1 m/s 730 mmHg 48%
    15:00 +13°C° 0 mm 1 m/s 730 mmHg 47%
    16:00 +13°C° 0 mm 1 m/s 730 mmHg 46%
    17:00 +11°C° 0 mm 1 m/s 729 mmHg 53%
    18:00 +10°C° 0 mm 1 m/s 729 mmHg 59%
    19:00 +7°C° 0 mm 0 m/s 729 mmHg 66%
    20:00 +6°C° 0 mm 0 m/s 729 mmHg 68%
    21:00 +6°C° 0 mm 0 m/s 729 mmHg 69%
    22:00 +7°C° 0 mm 1 m/s 729 mmHg 71%
    23:00 +6°C° 0 mm 1 m/s 728 mmHg 72%

    30 Março, Sábado

    Tempo Temperatura Precipitação Vento Pressão Humidade
    00:00 +6°C° 0 mm 1 m/s 728 mmHg 73%
    01:00 +6°C° 0 mm 1 m/s 728 mmHg 74%
    02:00 +5°C° 0 mm 1 m/s 728 mmHg 75%
    03:00 +5°C° 0 mm 1 m/s 728 mmHg 76%
    04:00 +5°C° 0 mm 1 m/s 728 mmHg 77%
    05:00 +6°C° 0 mm 1 m/s 728 mmHg 75%
    06:00 +6°C° 0 mm 1 m/s 728 mmHg 74%
    07:00 +7°C° 0 mm 1 m/s 727 mmHg 73%
    08:00 +9°C° 0 mm 1 m/s 727 mmHg 65%
    09:00 +11°C° 0 mm 1 m/s 727 mmHg 58%
    10:00 +13°C° 0 mm 1 m/s 727 mmHg 51%
    11:00 +14°C° 0 mm 1 m/s 727 mmHg 47%
    12:00 +15°C° 0 mm 2 m/s 726 mmHg 44%
    13:00 +16°C° 0 mm 2 m/s 726 mmHg 40%
    14:00 +16°C° 0 mm 2 m/s 725 mmHg 41%
    15:00 +16°C° 0 mm 3 m/s 724 mmHg 42%
    16:00 +16°C° 0 mm 3 m/s 723 mmHg 42%
    17:00 +13°C° 0 mm 3 m/s 723 mmHg 49%
    18:00 +12°C° 0 mm 2 m/s 722 mmHg 56%
    19:00 +9°C° 0 mm 2 m/s 722 mmHg 63%
    20:00 +8°C° 0 mm 2 m/s 721 mmHg 64%
    21:00 +8°C° 0 mm 2 m/s 721 mmHg 65%
    22:00 +7°C° 0 mm 2 m/s 721 mmHg 66%
    23:00 +7°C° 0 mm 2 m/s 721 mmHg 67%
    Mostrar mais